• In Romania
  • List of Countries
  • For 7 days
  • Water Temperature
  • Satellite Maps
  • Weather Map
  • Weather Widgets
  • user-avatar
    Login

    Hourly Weather Timiryazevskiy

    Today, 16 August, Thursday

    Time Temperature Precipitation Wind Pressure Humidity
    00:00 +20°C° 0 mm 2 mps 747 mmHg 50%
    01:00 +20°C° 0 mm 2 mps 747 mmHg 51%
    02:00 +19°C° 0 mm 2 mps 747 mmHg 52%
    03:00 +19°C° 0 mm 2 mps 747 mmHg 54%
    04:00 +19°C° 0 mm 2 mps 747 mmHg 55%
    05:00 +19°C° 0 mm 2 mps 747 mmHg 56%
    06:00 +19°C° 0 mm 2 mps 747 mmHg 57%
    07:00 +21°C° 0 mm 3 mps 747 mmHg 52%
    08:00 +25°C° 0 mm 3 mps 747 mmHg 47%
    09:00 +27°C° 0 mm 4 mps 747 mmHg 42%
    10:00 +28°C° 0 mm 4 mps 747 mmHg 40%
    11:00 +29°C° 0 mm 4 mps 747 mmHg 38%
    12:00 +30°C° 0 mm 4 mps 747 mmHg 36%
    13:00 +31°C° 0 mm 3 mps 747 mmHg 35%
    14:00 +31°C° 0 mm 3 mps 746 mmHg 35%
    15:00 +31°C° 0 mm 3 mps 746 mmHg 34%
    16:00 +31°C° 0 mm 2 mps 746 mmHg 38%
    17:00 +30°C° 0 mm 2 mps 746 mmHg 41%
    18:00 +30°C° 0 mm 1 mps 746 mmHg 44%
    19:00 +28°C° 0 mm 1 mps 745 mmHg 47%
    20:00 +26°C° 0 mm 1 mps 745 mmHg 50%
    21:00 +25°C° 0 mm 1 mps 745 mmHg 52%
    22:00 +24°C° 0 mm 1 mps 745 mmHg 53%
    23:00 +24°C° 0 mm 1 mps 745 mmHg 54%

    Tomorrow, 17 August, Friday

    Time Temperature Precipitation Wind Pressure Humidity
    00:00 +23°C° 0 mm 1 mps 745 mmHg 55%
    01:00 +23°C° 0 mm 1 mps 745 mmHg 56%
    02:00 +22°C° 0 mm 1 mps 745 mmHg 57%
    03:00 +22°C° 0 mm 1 mps 745 mmHg 58%
    04:00 +22°C° 0.1 mm 1 mps 745 mmHg 60%
    05:00 +22°C° 0.1 mm 1 mps 745 mmHg 63%
    06:00 +22°C° 0.1 mm 1 mps 745 mmHg 66%
    07:00 +23°C° 0 mm 2 mps 745 mmHg 62%
    08:00 +25°C° 0 mm 2 mps 745 mmHg 59%
    09:00 +27°C° 0 mm 2 mps 746 mmHg 55%
    10:00 +28°C° 0.4 mm 2 mps 746 mmHg 53%
    11:00 +28°C° 0.4 mm 3 mps 746 mmHg 51%
    12:00 +29°C° 0.4 mm 3 mps 746 mmHg 49%
    13:00 +29°C° 0.3 mm 4 mps 745 mmHg 53%
    14:00 +28°C° 0.3 mm 4 mps 745 mmHg 56%
    15:00 +27°C° 0.3 mm 5 mps 745 mmHg 59%
    16:00 +26°C° 0.2 mm 5 mps 745 mmHg 62%
    17:00 +25°C° 0.2 mm 5 mps 745 mmHg 65%
    18:00 +23°C° 0.2 mm 5 mps 745 mmHg 68%
    19:00 +21°C° 0.1 mm 5 mps 746 mmHg 68%
    20:00 +20°C° 0.1 mm 5 mps 746 mmHg 68%
    21:00 +19°C° 0.1 mm 4 mps 746 mmHg 67%
    22:00 +18°C° 0 mm 4 mps 747 mmHg 69%
    23:00 +17°C° 0 mm 4 mps 747 mmHg 70%

    Day after tomorrow, 18 August, Saturday

    Time Temperature Precipitation Wind Pressure Humidity
    00:00 +15°C° 0 mm 4 mps 747 mmHg 71%
    01:00 +15°C° 0 mm 4 mps 747 mmHg 74%
    02:00 +14°C° 0 mm 4 mps 747 mmHg 76%
    03:00 +14°C° 0 mm 4 mps 747 mmHg 78%
    04:00 +14°C° 0 mm 4 mps 747 mmHg 78%
    05:00 +14°C° 0 mm 4 mps 747 mmHg 78%
    06:00 +14°C° 0 mm 4 mps 748 mmHg 79%
    07:00 +15°C° 0 mm 5 mps 748 mmHg 70%
    08:00 +17°C° 0 mm 5 mps 748 mmHg 62%
    09:00 +20°C° 0 mm 6 mps 748 mmHg 54%
    10:00 +21°C° 0 mm 5 mps 748 mmHg 50%
    11:00 +22°C° 0 mm 5 mps 748 mmHg 47%
    12:00 +23°C° 0 mm 5 mps 748 mmHg 43%
    13:00 +23°C° 0 mm 5 mps 748 mmHg 43%
    14:00 +23°C° 0 mm 5 mps 748 mmHg 42%
    15:00 +23°C° 0 mm 5 mps 748 mmHg 42%
    16:00 +23°C° 0 mm 4 mps 748 mmHg 45%
    17:00 +22°C° 0 mm 4 mps 748 mmHg 49%
    18:00 +21°C° 0 mm 4 mps 748 mmHg 52%
    19:00 +20°C° 0 mm 4 mps 748 mmHg 56%
    20:00 +18°C° 0 mm 3 mps 748 mmHg 60%
    21:00 +16°C° 0 mm 3 mps 749 mmHg 64%
    22:00 +16°C° 0 mm 3 mps 749 mmHg 66%
    23:00 +14°C° 0 mm 3 mps 749 mmHg 67%

    19 August, Sunday

    Time Temperature Precipitation Wind Pressure Humidity
    00:00 +13°C° 0 mm 3 mps 749 mmHg 68%
    01:00 +13°C° 0 mm 3 mps 749 mmHg 70%
    02:00 +12°C° 0 mm 3 mps 749 mmHg 71%
    03:00 +11°C° 0 mm 3 mps 749 mmHg 73%
    04:00 +12°C° 0 mm 3 mps 749 mmHg 74%
    05:00 +12°C° 0 mm 3 mps 749 mmHg 74%
    06:00 +12°C° 0 mm 3 mps 749 mmHg 75%
    07:00 +14°C° 0 mm 3 mps 750 mmHg 69%
    08:00 +15°C° 0 mm 4 mps 750 mmHg 62%
    09:00 +17°C° 0 mm 5 mps 750 mmHg 55%
    10:00 +19°C° 0 mm 5 mps 750 mmHg 51%
    11:00 +20°C° 0 mm 4 mps 749 mmHg 47%
    12:00 +21°C° 0 mm 4 mps 749 mmHg 44%
    13:00 +22°C° 0 mm 4 mps 749 mmHg 43%
    14:00 +22°C° 0 mm 4 mps 749 mmHg 42%
    15:00 +22°C° 0 mm 4 mps 748 mmHg 42%
    16:00 +22°C° 0 mm 4 mps 748 mmHg 45%
    17:00 +21°C° 0 mm 3 mps 748 mmHg 48%
    18:00 +20°C° 0 mm 3 mps 748 mmHg 51%
    19:00 +19°C° 0 mm 3 mps 748 mmHg 54%
    20:00 +17°C° 0 mm 2 mps 748 mmHg 57%
    21:00 +15°C° 0 mm 2 mps 748 mmHg 60%
    22:00 +15°C° 0 mm 2 mps 749 mmHg 62%
    23:00 +14°C° 0 mm 2 mps 749 mmHg 64%

    20 August, Monday

    Time Temperature Precipitation Wind Pressure Humidity
    00:00 +14°C° 0 mm 2 mps 749 mmHg 66%
    01:00 +13°C° 0 mm 2 mps 749 mmHg 68%
    02:00 +13°C° 0 mm 2 mps 749 mmHg 70%
    03:00 +12°C° 0 mm 1 mps 749 mmHg 72%
    04:00 +12°C° 0 mm 1 mps 749 mmHg 73%
    05:00 +12°C° 0 mm 1 mps 749 mmHg 74%
    06:00 +13°C° 0 mm 1 mps 749 mmHg 75%
    07:00 +14°C° 0 mm 2 mps 749 mmHg 68%
    08:00 +16°C° 0 mm 2 mps 749 mmHg 61%
    09:00 +18°C° 0 mm 2 mps 749 mmHg 54%
    10:00 +19°C° 0 mm 2 mps 749 mmHg 50%
    11:00 +20°C° 0 mm 2 mps 749 mmHg 45%
    12:00 +23°C° 0 mm 2 mps 749 mmHg 40%
    13:00 +23°C° 0 mm 2 mps 749 mmHg 38%
    14:00 +24°C° 0 mm 1 mps 749 mmHg 36%
    15:00 +24°C° 0 mm 1 mps 749 mmHg 34%
    16:00 +24°C° 0 mm 1 mps 748 mmHg 37%
    17:00 +23°C° 0 mm 1 mps 748 mmHg 39%
    18:00 +23°C° 0 mm 1 mps 748 mmHg 42%
    19:00 +21°C° 0 mm 1 mps 748 mmHg 44%
    20:00 +19°C° 0 mm 1 mps 749 mmHg 46%
    21:00 +18°C° 0 mm 1 mps 749 mmHg 48%
    22:00 +16°C° 0 mm 1 mps 749 mmHg 49%
    23:00 +16°C° 0 mm 1 mps 749 mmHg 49%

    21 August, Tuesday

    Time Temperature Precipitation Wind Pressure Humidity
    00:00 +15°C° 0 mm 1 mps 749 mmHg 50%
    01:00 +15°C° 0 mm 1 mps 749 mmHg 51%
    02:00 +15°C° 0 mm 1 mps 749 mmHg 52%
    03:00 +14°C° 0 mm 1 mps 749 mmHg 53%
    04:00 +14°C° 0 mm 1 mps 749 mmHg 54%
    05:00 +15°C° 0 mm 1 mps 749 mmHg 55%
    06:00 +15°C° 0 mm 1 mps 749 mmHg 56%
    07:00 +18°C° 0 mm 1 mps 749 mmHg 50%
    08:00 +20°C° 0 mm 1 mps 749 mmHg 45%
    09:00 +21°C° 0 mm 2 mps 750 mmHg 40%
    10:00 +23°C° 0 mm 2 mps 749 mmHg 38%
    11:00 +24°C° 0 mm 2 mps 749 mmHg 35%
    12:00 +25°C° 0 mm 2 mps 749 mmHg 33%
    13:00 +26°C° 0 mm 2 mps 749 mmHg 32%
    14:00 +26°C° 0 mm 2 mps 749 mmHg 31%
    15:00 +27°C° 0 mm 2 mps 749 mmHg 30%
    16:00 +26°C° 0 mm 2 mps 748 mmHg 34%
    17:00 +25°C° 0 mm 2 mps 748 mmHg 37%
    18:00 +25°C° 0 mm 1 mps 748 mmHg 41%
    19:00 +23°C° 0 mm 1 mps 748 mmHg 43%
    20:00 +21°C° 0 mm 1 mps 748 mmHg 45%
    21:00 +20°C° 0 mm 1 mps 748 mmHg 47%
    22:00 +19°C° 0 mm 1 mps 748 mmHg 48%
    23:00 +19°C° 0 mm 1 mps 748 mmHg 48%
    Show more